COSMOS 1275 DEB, 17626

Orbit data source: Space-Track

COSMOS 1275 DEB, 17626 is space debris in LEO originally from a launch on Thu, 04 Jun 1981 UTC launched from the Plesetsk Missile And Space Complex (PKMTR). Debris objects in space refer to the collection of defunct objects orbiting the Earth. Examples of debris include non-operational satellites, rocket bodies, and fragments generated from explosions, collisions, or faulty payload assembly.

Loading next visibility...
Identifier
17626, 1981-053KV
Orbit
LEO
Country
Flag of CISCIS
Related business
Manufacturer
Unknown
Mission
Spacecraft
Bus & Motor
Unknown
Mass
Unknown
Launch date (UTC)
1981-06-04 (45 years ago)
Launch vehicle
Unknown
Launch site
Plesetsk Missile And Space Complex (PKMTR)
Object type
Payload
Rocket body
Debris
Shape & HBR
Unknown shape, 0.1 m
Radar Cross Section
Small (<0.1 m²)

Expand to show TLE details & history
Last TLE update: 20 hours ago

TLE from 20 hours ago
0 COSMOS 1275 DEB
1 17626U 81053KV  25340.35643802  .00001232  00000-0  14207-2 0  9998
2 17626  82.8677 295.5321 0143990  67.1612  84.6910 13.64211559 13108
Epoch: 2025-12-06T08:33Z
TLE epoch observation values (Epoch: 2025-12-06T08:33:16.244Z)
Latitude
26.31533°
Longitude
-91.70053°
Altitude
1,015.272 km
Speed
7.351 km/s
True Right ascension
07h 28m 00s
True Declination
26° 11' 01"
Sunlit
Object was in full shadow at epoch
Visualization orbit readout
Latitude
Unknown
Longitude
Unknown
Altitude
Unknown
Speed
Unknown
Apparent Right ascension
Unknown
Apparent Declination
Unknown
Sunlit
N/A
Visualization observer readout
Local Sidereal Time
02:36:46
Azimuth
Unknown
Elevation
Unknown
Doppler factor
Unknown
Orbital elements
Apogee altitude
1,124.083 km
Perigee altitude
911.1 km
Semi-major axis
7,395.728 km
Eccentricity
0.0144
Inclination
82.8677°
RAAN
295.5321°
Arg. of periapsis
67.1612°
True anomaly
86.33644°
Mean anomaly
84.691°
Eccentric anomaly
85.51347°
Mean motion
3.41249 °/min
Orbital period
105.49 mins
BSTAR
0.0014207
Loading maneuver chart data...
Computing Atmospheric mass density...

Documentation

Showing up to 5 results
|